CAPE
2 0 0 0 0 0 0 0 0 0 0 1 1 2 5 2 0 0 0 0 0 0 7 28 0 0 0 0 12 18 59 9 0 0 0 0 0 0 0 0 85 36 31 47 14
0 0 0 0 0 0 0 0 0 0 2 4 1 3 5 3 0 0 0 0 3 0 0 101 0 24 2 18 20 66 56 23 1 0 0 0 0 0 0 4 0 0 0 23 1
0 0 0 0 0 0 0 0 0 0 2 2 1 2 1 1 0 0 0 0 0 0 0 64 128 138 38 35 1 50 46 58 32 0 0 0 0 0 0 0 0 0 0 16 10
0 0 0 0 0 0 0 0 0 0 0 0 0 0 0 0 0 0 0 0 15 0 0 0 83 77 8 15 4 24 59 81 57 3 0 0 0 0 0 0 0 0 0 4 18
0 0 0 0 0 0 0 0 0 0 0 0 0 0 1 0 0 0 0 0 0 0 0 0 0 38 0 8 6 2 8 57 83 23 0 0 0 0 0 0 0 0 0 1 0
1 0 0 0 0 0 0 0 0 0 0 0 0 0 1 0 0 0 0 0 0 2 1 0 0 56 0 0 1 26 6 34 59 18 6 0 0 0 0 0 0 0 7 0 0
0 0 0 0 0 0 0 0 0 0 0 0 0 0 1 0 0 0 0 0 1 2 23 13 13 19 0 6 16 0 0 12 113 42 23 0 0 0 0 0 0 0 1 3 0
0 0 1 0 0 0 0 0 0 0 0 0 0 0 0 0 0 0 0 0 3 15 13 9 11 9 12 4 0 0 0 15 44 54 1 0 0 0 0 0 0 0 0 0 14
0 0 0 0 0 0 0 0 0 0 0 0 0 0 0 0 0 0 0 7 2 8 4 18 11 11 18 0 0 0 2 18 25 25 0 0 3 0 0 0 0 0 0 0 0
0 0 0 0 0 0 0 0 0 0 0 0 0 0 0 0 0 0 0 6 4 9 13 21 8 1 8 2 0 0 1 0 20 7 2 2 0 0 0 0 0 0 0 0 0
0 0 0 0 0 0 0 0 0 0 0 0 0 0 0 0 0 1 0 12 14 0 0 1 0 0 0 0 0 0 0 1 2 0 1 0 1 0 0 0 0 0 0 0 0
0 0 0 0 0 0 0 0 0 0 0 0 0 0 0 0 0 0 0 1 0 0 0 0 0 0 0 2 0 0 1 0 8 2 1 4 2 0 0 0 0 0 0 0 0
0 0 0 0 0 0 0 0 0 0 0 0 0 0 0 0 0 0 0 0 1 0 0 0 0 0 0 0 1 3 0 14 20 8 1 0 0 0 0 0 0 0 0 0 0
0 0 0 0 0 0 0 0 0 0 0 0 0 0 0 0 0 0 0 0 0 0 0 0 0 0 0 0 0 0 0 1 45 55 4 2 0 0 0 0 0 0 0 0 0
0 0 0 0 0 0 0 0 0 0 0 0 0 0 0 0 0 0 0 0 0 0 0 0 0 0 0 0 0 0 0 0 7 0 0 0 0 0 0 0 0 0 0 0 0
0 0 0 0 0 0 0 0 0 0 0 0 0 0 0 0 0 0 0 0 0 0 0 0 0 0 0 0 0 0 0 0 0 0 0 0 0 0 0 0 0 0 0 0 0
0 0 0 0 0 0 0 0 0 0 0 0 0 0 0 0 0 0 0 0 0 0 0 0 0 0 0 0 0 0 0 0 0 0 0 0 0 0 0 0 0 0 0 0 0
0 0 0 0 0 0 0 0 0 0 0 0 0 0 0 0 0 0 0 0 0 0 0 0 0 0 0 0 0 0 0 0 0 0 0 0 0 0 0 0 0 0 0 0 0
0 0 0 0 0 0 0 0 0 0 0 0 0 0 0 0 0 0 0 0 0 1 0 0 0 0 0 0 0 0 0 0 0 0 0 0 0 0 0 0 0 0 0 0 0
0 0 0 0 0 0 0 0 0 0 0 0 0 0 0 0 0 0 0 0 0 0 2 0 0 0 0 0 0 0 0 0 0 0 0 0 0 0 0 0 0 0 0 0 0
0 0 0 0 0 0 0 0 0 0 0 0 0 0 0 0 0 0 0 0 0 0 0 0 0 0 0 0 0 0 0 0 0 0 0 0 0 0 0 0 0 0 0 0 0
0 0 0 0 0 0 0 0 0 0 0 0 0 0 0 0 0 0 0 0 0 0 0 0 0 0 0 0 0 0 0 0 0 0 0 0 0 0 0 0 0 0 0 0 0
0 0 0 0 0 0 0 0 0 0 0 0 0 0 0 0 0 0 0 0 0 0 0 0 0 0 0 0 0 0 0 0 0 0 0 0 0 0 0 0 0 0 0 0 0
0 0 0 0 0 0 0 0 0 0 0 0 0 0 0 0 0 0 0 0 0 0 0 0 0 0 0 0 0 0 0 0 0 0 0 0 0 0 0 0 0 0 0 0 0
0 0 0 0 0 0 0 0 0 0 0 0 0 0 0 0 0 0 0 0 0 0 0 0 0 0 0 0 0 0 0 0 1 0 0 0 0 0 0 0 0 0 0 0 0
0 0 0 0 0 0 0 0 0 0 0 0 0 0 0 0 0 0 0 0 0 0 0 0 0 0 0 0 0 0 0 0 0 0 0 0 0 0 0 0 0 0 0 0 0
0 0 0 0 0 0 0 0 0 0 0 0 0 0 0 0 0 0 0 0 0 0 0 0 0 0 0 0 0 0 0 0 0 0 0 0 0 0 0 0 0 0 0 0 0
CIN
0 0 0 0 0 0 0 0 0 0 0 0 0 0 0 0 0 0 0 0 0 0 -1 -64 0 0 -11 0 -19 -39 -10 -9 -1 0 0 0 0 0 0 0 -102 -94 -133 -181 -267
0 0 0 0 0 0 0 0 0 0 0 0 0 0 0 0 0 0 0 0 -1 0 0 -19 0 -77 -15 -2 -8 -1 -1 -6 -11 0 0 0 0 0 0 -23 0 0 0 -240 -36
0 0 0 0 0 0 0 0 0 0 0 0 0 0 0 -1 0 0 0 0 0 0 0 -40 -61 -11 -24 -10 -1 -8 -1 -14 -14 0 0 0 0 0 0 0 0 0 0 -178 -292
0 0 0 0 0 0 0 0 0 0 0 0 0 0 0 0 0 0 0 0 -33 0 0 0 -30 -34 -27 -15 -9 0 -6 -13 -16 -57 0 0 0 0 0 0 0 0 0 -162 -255
0 0 0 0 0 0 0 0 0 0 0 0 0 0 0 0 0 0 0 0 0 0 0 0 0 -37 0 -8 -18 -12 -22 -18 -17 -45 -46 0 0 0 0 0 0 0 0 -62 -11
0 0 0 0 0 0 0 0 0 0 0 0 0 0 -1 0 0 0 0 0 -4 -7 -2 0 0 -22 0 0 -2 -5 -12 -19 -24 -42 -20 0 0 0 0 0 0 0 -37 0 0
0 0 0 0 0 0 0 0 0 0 0 0 0 0 0 0 0 0 0 0 -6 -7 0 -2 -3 -4 0 -14 0 -1 0 -16 -8 -13 -26 -15 0 0 0 0 0 0 -1 -25 0
0 0 0 0 0 0 0 0 0 0 0 0 0 0 0 0 0 0 0 -5 -3 0 0 -3 -4 -2 -18 -1 0 0 0 -1 -6 -2 -5 0 0 0 0 0 0 0 0 0 -61
0 0 0 0 0 0 0 0 0 0 0 0 0 0 0 0 0 0 -12 -2 -3 -1 -3 -2 -1 -1 -3 0 -2 0 -1 -1 -3 -3 -2 0 0 0 0 0 0 0 0 0 0
0 0 0 0 0 0 0 0 0 0 0 0 0 0 0 0 0 0 -12 -12 -3 -6 0 0 -1 -3 -2 -1 -1 0 0 0 -3 -3 -29 -1 0 0 0 0 0 0 0 0 0
0 0 0 0 0 0 0 0 0 0 0 0 0 0 0 0 0 -14 0 -11 -2 0 0 0 0 0 0 0 0 0 0 0 -1 0 -5 0 0 0 0 0 0 0 0 0 0
0 0 0 0 0 0 0 0 0 0 0 0 0 0 0 0 0 0 0 -14 0 0 0 0 0 0 0 0 0 0 -2 -2 -1 -5 0 0 0 0 0 0 0 0 0 0 0
0 0 0 0 0 0 0 0 0 0 0 0 0 0 0 0 0 0 0 0 -4 0 0 0 0 0 0 0 -7 -22 0 -33 -18 -1 -3 -5 0 0 0 0 0 0 0 0 0
0 0 0 0 0 0 0 0 0 0 0 0 0 0 0 0 0 0 0 0 0 0 0 0 0 0 0 0 0 0 0 -3 -38 -24 -27 -53 0 0 0 0 0 0 0 0 0
0 0 0 0 0 0 0 0 0 0 0 0 0 0 0 0 0 0 0 0 0 0 0 0 0 0 0 0 0 0 0 0 -72 0 0 0 0 0 0 0 0 0 0 0 0
0 0 0 0 0 0 0 0 0 0 0 0 0 0 0 0 0 0 0 0 0 0 0 0 0 0 0 0 0 0 0 0 0 0 0 0 0 0 0 0 0 0 0 0 0
0 0 0 0 0 0 0 0 0 0 0 0 0 0 0 0 0 0 0 0 0 0 0 0 0 0 0 0 0 0 0 0 0 0 0 0 0 0 0 0 0 0 0 0 0
0 0 0 0 0 0 0 0 0 0 0 0 0 0 0 0 0 0 0 0 0 0 0 0 0 0 0 0 0 0 0 0 0 0 0 0 0 0 0 0 0 0 0 0 0
0 0 0 0 0 0 0 0 0 0 0 0 0 0 0 0 0 0 0 0 0 0 0 0 0 0 0 0 0 0 0 0 0 0 0 0 0 0 0 0 0 0 0 0 0
0 0 0 0 0 0 0 0 0 0 0 0 0 0 0 0 0 0 0 0 0 0 0 0 0 0 0 0 0 0 0 0 0 0 0 0 0 0 0 0 0 0 0 0 0
0 0 0 0 0 0 0 0 0 0 0 0 0 0 0 0 0 0 0 0 0 0 0 0 0 0 0 0 0 0 0 0 0 0 0 0 0 0 0 0 0 0 0 0 0
0 0 0 0 0 0 0 0 0 0 0 0 0 0 0 0 0 0 0 0 0 0 0 0 0 0 0 0 0 0 0 0 0 0 0 0 0 0 0 0 0 0 0 0 0
0 0 0 0 0 0 0 0 0 0 0 0 0 0 0 0 0 0 0 0 0 0 0 0 0 0 0 0 0 -1 0 0 0 0 0 0 0 0 0 0 0 0 0 0 0
0 0 0 0 0 0 0 0 0 0 0 0 0 0 0 0 0 0 0 0 0 0 0 0 0 0 0 0 0 0 0 0 0 0 0 0 0 0 0 0 0 0 0 0 0
0 0 0 0 0 0 0 0 0 0 0 0 0 0 0 0 0 0 0 0 0 0 0 0 0 0 0 0 0 0 0 -2 -2 0 0 0 0 0 0 0 0 0 0 0 0
0 0 0 0 0 0 0 0 0 0 0 0 0 0 0 0 0 0 0 0 0 0 0 0 0 0 0 0 0 0 0 0 0 0 0 0 0 0 0 0 0 0 0 0 0
0 0 0 0 0 0 0 0 0 0 0 0 0 0 0 0 0 0 0 0 0 0 0 0 0 0 0 0 0 0 0 0 0 0 0 0 0 0 0 0 0 0 0 0 0
Wind_Speed
23 25 26 27 28 29 29 30 31 31 32 33 33 33 33 33 33 33 32 25 24 27 33 34 33 36 36 40 38 34 45 50 48 44 37 28 26 26 22 24 22 23 23 23 10
23 25 26 26 28 28 28 29 30 30 32 32 32 32 31 31 33 31 21 18 23 26 28 25 30 33 38 42 41 43 51 51 41 38 37 28 26 26 24 21 25 26 25 13 12
23 23 25 26 27 28 28 29 29 30 32 32 31 30 28 28 32 25 20 18 24 23 22 19 20 30 38 42 48 45 55 45 39 36 32 31 27 25 23 24 23 27 24 12 13
21 23 24 24 25 26 27 29 30 31 32 29 29 27 25 25 34 23 19 22 24 24 25 18 14 27 34 43 46 49 52 45 33 33 31 31 26 28 24 22 22 26 21 13 15
22 23 24 25 26 27 27 29 29 30 28 27 26 25 24 27 22 18 20 20 21 20 19 15 19 27 36 38 42 48 45 50 42 37 29 25 27 29 34 22 21 21 12 16 17
22 24 25 26 27 29 30 30 29 28 25 25 22 22 24 28 19 18 18 19 18 18 16 10 6 26 32 40 44 36 43 43 41 39 35 34 29 28 26 25 21 19 20 20 22
22 24 25 27 28 29 28 27 28 25 21 21 19 21 23 20 20 20 18 20 17 12 6 13 8 21 28 32 38 43 39 42 41 40 36 31 40 36 24 23 27 22 20 26 22
22 24 25 28 29 30 28 26 25 21 19 19 17 20 22 18 18 20 24 21 11 2 2 9 4 23 29 28 30 40 34 46 36 39 38 32 44 31 25 26 25 22 21 24 32
22 24 25 27 29 31 27 27 22 19 19 18 20 20 23 20 26 26 26 23 18 13 8 8 15 28 25 32 33 39 39 38 37 37 31 38 39 32 30 30 29 27 25 24 25
22 23 24 26 28 29 31 24 21 21 22 20 21 23 21 30 23 23 23 15 13 17 17 17 25 26 26 28 41 49 38 31 36 35 30 33 35 31 32 31 35 33 28 26 26
21 23 23 26 27 28 31 22 22 19 26 24 24 22 21 22 20 25 21 17 19 17 15 20 21 30 27 31 26 36 36 25 27 22 27 34 42 36 36 36 34 36 32 29 27
21 23 23 23 25 24 24 23 19 17 19 22 21 21 16 20 25 26 21 21 17 17 15 17 16 23 29 27 25 28 34 27 17 20 18 20 28 29 29 38 36 32 36 32 27
21 22 22 23 18 21 23 22 17 16 18 22 22 23 23 22 25 26 25 20 18 11 13 9 12 19 20 16 18 18 32 30 21 19 17 16 23 26 26 31 33 38 38 34 31
20 21 22 20 16 18 19 22 18 17 20 25 27 26 24 19 25 20 21 20 16 23 14 11 12 10 16 14 15 20 21 22 20 24 24 22 24 25 27 28 31 31 38 35 32
19 20 20 18 15 17 18 19 17 17 24 22 23 18 23 28 20 24 20 20 23 17 20 6 9 7 7 14 14 15 14 18 20 23 22 23 24 22 19 24 29 33 35 37 33
18 18 17 17 17 17 18 16 16 20 22 21 22 26 27 28 26 21 24 20 19 21 2 6 11 10 11 12 9 11 13 12 16 21 25 23 24 21 19 19 18 23 27 30 33
18 16 15 14 16 18 15 15 18 20 19 20 22 23 24 26 29 25 27 29 25 25 9 8 8 12 11 11 10 11 14 23 28 29 29 24 24 24 23 23 24 25 22 20 22
20 13 13 13 17 16 14 16 18 16 16 16 20 21 23 23 25 27 26 26 22 20 21 10 7 13 14 10 13 14 18 23 33 34 29 22 27 22 23 20 20 21 21 20 20
16 13 13 12 16 13 14 15 15 13 14 15 18 21 21 21 21 22 25 25 20 18 19 14 10 15 14 15 13 15 19 17 20 23 28 27 25 17 20 20 21 21 21 22 22
13 13 12 16 12 12 13 13 13 12 14 14 17 18 19 20 19 20 21 20 18 15 13 15 9 14 16 15 13 13 12 20 21 29 33 27 27 26 22 22 21 21 22 22 21
13 15 11 14 12 13 12 11 10 9 12 14 14 16 17 18 19 18 18 17 18 15 14 15 15 8 13 14 15 16 16 17 17 22 28 30 27 18 18 18 19 20 20 20 20
13 16 13 10 11 14 11 9 9 8 11 13 13 14 15 16 18 17 17 16 16 13 16 14 15 15 11 13 14 14 15 17 23 26 25 26 26 17 14 17 20 22 21 20 21
13 14 13 10 11 10 10 9 9 8 8 10 11 12 13 14 16 16 16 16 18 18 15 13 14 14 13 8 15 16 17 16 16 19 24 28 27 16 15 22 26 25 25 24 24
13 16 15 12 13 8 7 8 8 9 8 9 10 11 11 12 14 13 14 16 17 19 15 14 14 13 11 11 9 9 17 17 18 22 23 25 22 20 27 30 28 27 26 25 26
14 16 13 13 10 8 7 6 7 9 9 7 10 9 9 11 12 12 13 14 15 19 16 14 12 11 11 10 8 5 10 16 18 20 24 22 25 26 31 29 26 24 25 26 27
14 14 13 12 7 6 9 9 7 8 6 8 11 5 7 10 10 9 11 13 13 15 16 15 12 11 9 8 7 5 7 12 14 20 23 25 27 22 22 22 24 25 26 27 28
13 12 12 11 10 11 11 8 8 5 9 11 6 6 7 9 9 11 12 12 12 13 14 14 12 13 10 12 7 2 3 6 13 14 16 23 24 24 25 24 25 26 26 28 29
Wind_Direction
358 357 354 353 351 348 350 349 348 349 348 348 347 347 346 346 343 340 332 334 334 328 320 310 292 277 267 252 247 248 242 240 238 237 240 247 248 253 258 262 261 261 263 265 215
357 356 355 354 351 350 351 351 351 350 349 349 349 348 350 349 346 345 351 358 349 345 339 323 291 277 260 248 243 238 237 238 238 238 237 245 244 248 250 253 253 254 266 266 198
356 357 355 354 353 350 351 351 351 350 350 351 352 352 354 356 349 357 8 7 356 352 346 344 305 279 258 245 237 237 235 235 237 236 234 239 241 245 241 244 257 254 254 230 195
357 357 356 356 356 352 353 350 350 351 351 355 356 0 2 3 350 4 1 347 345 340 334 337 330 275 257 239 235 236 234 232 234 230 231 234 239 239 238 248 263 262 249 221 215
354 355 354 354 353 351 351 350 351 353 356 358 3 8 9 1 0 2 355 349 343 340 331 325 310 275 252 238 236 234 234 229 232 229 229 231 236 240 234 251 266 273 243 234 230
352 353 354 351 352 349 348 350 352 356 359 2 9 15 9 358 10 360 353 348 336 331 327 326 307 277 250 234 231 232 230 228 228 227 233 233 237 243 236 246 270 269 249 242 240
351 352 352 350 349 349 352 353 353 357 3 9 18 17 9 7 10 3 353 343 334 325 296 323 319 265 238 235 232 228 228 225 226 228 229 232 233 237 243 243 256 260 265 243 246
349 351 353 348 347 348 352 354 356 3 12 16 28 22 16 19 12 4 358 349 348 354 260 322 299 254 231 236 230 218 226 219 225 225 227 225 227 242 245 239 254 262 262 256 242
346 348 351 348 347 348 356 355 5 16 19 30 29 25 21 23 15 13 16 18 34 55 69 76 238 215 226 223 216 210 214 217 223 222 230 223 232 240 245 241 246 257 258 261 253
344 347 351 349 349 352 353 3 14 26 26 35 34 26 26 15 17 26 34 65 105 121 122 105 208 211 219 224 206 203 208 219 220 226 227 222 235 239 243 241 246 251 253 259 257
342 346 349 348 350 355 356 16 19 21 26 28 24 27 18 19 44 38 44 76 99 102 137 160 179 207 216 216 213 207 209 215 224 228 230 234 236 246 244 241 246 244 252 257 259
341 343 347 350 351 2 12 21 27 29 26 33 30 29 29 36 39 42 52 76 104 108 159 184 214 211 213 213 216 209 207 218 235 228 233 236 238 241 245 244 251 252 247 251 257
339 342 347 348 3 8 16 21 28 37 30 30 31 33 34 42 46 46 55 74 97 126 152 253 221 205 202 212 204 208 207 218 224 217 239 249 246 245 249 245 252 251 247 251 256
340 342 342 351 8 13 16 15 29 37 26 22 28 35 37 53 52 57 62 76 99 79 166 180 210 188 201 215 216 213 224 222 221 229 243 251 248 252 252 256 255 262 255 256 260
340 342 347 357 9 14 17 20 34 38 11 22 31 43 44 50 53 56 73 79 75 111 141 211 206 194 219 224 235 225 235 229 231 240 250 251 252 256 265 263 262 261 265 259 264
335 343 349 349 3 10 12 31 33 20 13 26 31 32 39 46 52 65 70 87 102 111 244 225 214 232 239 248 261 253 238 243 248 247 242 253 251 261 267 273 279 274 280 270 266
334 343 348 358 360 1 21 28 15 13 24 24 29 33 43 45 48 57 61 66 77 85 348 237 251 241 260 257 271 257 241 237 238 241 244 259 255 261 273 281 280 284 291 295 286
325 346 353 359 355 6 20 14 4 19 24 36 33 37 41 46 50 54 62 70 80 93 65 341 305 264 267 282 267 265 258 247 239 239 246 262 257 267 296 303 302 301 305 300 298
334 341 341 353 353 5 7 0 6 24 34 34 36 33 37 44 53 58 62 66 83 88 93 30 309 270 274 276 283 272 262 270 259 261 253 258 268 291 316 311 308 303 311 306 302
332 335 338 337 358 1 359 357 12 33 34 35 24 35 36 39 48 53 61 68 80 99 116 111 56 294 280 283 294 290 287 265 265 251 249 260 263 270 299 304 312 311 311 319 315
323 320 341 340 349 346 342 356 18 33 32 28 29 36 37 40 45 50 57 73 74 97 111 108 103 30 301 296 285 286 279 282 276 268 257 255 263 298 307 317 323 323 329 329 329
312 307 333 343 328 335 339 2 11 23 23 26 31 34 37 41 43 46 55 63 69 103 89 105 113 104 94 316 302 296 290 282 269 265 268 266 267 303 311 321 322 323 324 331 331
302 306 326 325 308 317 338 346 353 5 9 20 18 22 29 34 34 45 50 60 56 59 80 104 95 99 107 13 309 298 294 293 291 283 270 264 269 298 309 314 315 311 311 313 317
303 298 307 310 311 312 315 325 335 347 353 2 7 15 24 26 31 39 40 45 47 44 72 114 88 89 102 105 42 339 302 293 287 279 275 273 282 285 294 302 307 309 310 309 310
294 296 304 302 283 302 313 327 311 323 337 347 344 354 10 12 20 24 25 30 40 28 52 67 70 76 105 93 79 76 339 307 294 285 280 284 283 289 294 299 306 311 315 312 310
285 297 299 306 300 282 297 287 283 309 321 312 325 345 358 355 4 18 19 19 27 24 34 46 46 53 69 90 83 119 356 323 310 295 289 286 288 305 310 310 309 312 310 310 311
282 297 301 295 288 279 279 281 269 299 308 317 316 329 333 346 3 10 11 12 19 15 20 27 34 26 35 29 44 143 120 344 320 317 309 295 294 307 305 309 309 311 314 310 312